| time (UTC) | temp F | wind direction | speed MPH | gust MPH | rain 1hr in | rain 24hr in | rain mn in | humidity % | barometer mb |
| 20260506214633 | 57 | 34 | 2.0 | 3.0 | 0.00 | 0.09 | 0.09 | 48 | 1012.8 |
| 20260506214131 | 57 | 246 | 1.0 | 4.0 | 0.00 | 0.09 | 0.09 | 49 | 1012.9 |
| 20260506213629 | 57 | 354 | 3.0 | 6.0 | 0.00 | 0.09 | 0.09 | 48 | 1012.7 |
| 20260506213126 | 57 | 358 | 1.0 | 2.0 | 0.00 | 0.09 | 0.09 | 48 | 1012.7 |
| 20260506212624 | 57 | 281 | 1.0 | 1.0 | 0.00 | 0.09 | 0.09 | 47 | 1012.7 |
| 20260506212118 | 57 | 334 | 1.0 | 4.0 | 0.00 | 0.09 | 0.09 | 46 | 1012.7 |
| 20260506211614 | 57 | 334 | 1.0 | 4.0 | 0.00 | 0.09 | 0.09 | 48 | 1012.5 |
| 20260506211111 | 57 | 255 | 1.0 | 4.0 | 0.00 | 0.09 | 0.09 | 49 | 1012.6 |
| 20260506210608 | 58 | 322 | 1.0 | 1.0 | 0.00 | 0.09 | 0.09 | 49 | 1012.6 |
| 20260506210104 | 58 | 220 | 0.0 | 0.0 | 0.00 | 0.09 | 0.09 | 49 | 1012.8 |
| 20260506205601 | 57 | 353 | 2.0 | 6.0 | 0.00 | 0.09 | 0.09 | 47 | 1012.7 |
| 20260506205056 | 57 | 329 | 1.0 | 4.0 | 0.00 | 0.09 | 0.09 | 48 | 1012.6 |
| 20260506204554 | 57 | 311 | 1.0 | 3.0 | 0.00 | 0.09 | 0.09 | 47 | 1012.5 |
| 20260506204051 | 58 | 63 | 2.0 | 4.0 | 0.00 | 0.09 | 0.09 | 48 | 1012.4 |
| 20260506203550 | 58 | 257 | 0.0 | 4.0 | 0.00 | 0.09 | 0.09 | 47 | 1012.6 |
| 20260506203046 | 59 | 12 | 2.0 | 4.0 | 0.00 | 0.09 | 0.09 | 47 | 1012.4 |
| 20260506202543 | 59 | 287 | 0.0 | 2.0 | 0.00 | 0.09 | 0.09 | 46 | 1012.4 |
| 20260506202039 | 58 | 289 | 0.0 | 2.0 | 0.00 | 0.09 | 0.09 | 50 | 1012.3 |
| 20260506201537 | 57 | 271 | 1.0 | 1.0 | 0.00 | 0.09 | 0.09 | 50 | 1012.4 |
| 20260506201033 | 57 | 316 | 4.0 | 6.0 | 0.00 | 0.09 | 0.09 | 48 | 1012.5 |
| 20260506200529 | 57 | 292 | 1.0 | 6.0 | 0.00 | 0.09 | 0.09 | 48 | 1012.4 |
| 20260506200026 | 58 | 223 | 0.0 | 7.0 | 0.00 | 0.09 | 0.09 | 46 | 1012.3 |
| 20260506195524 | 58 | 315 | 2.0 | 3.0 | 0.00 | 0.09 | 0.09 | 48 | 1012.4 |
| 20260506195020 | 58 | 20 | 7.0 | 9.0 | 0.00 | 0.09 | 0.09 | 46 | 1012.3 |
| 20260506194518 | 58 | 313 | 3.0 | 6.0 | 0.00 | 0.09 | 0.09 | 48 | 1012.3 |
| 20260506194014 | 59 | 291 | 1.0 | 7.0 | 0.00 | 0.09 | 0.09 | 48 | 1012.3 |
| 20260506193511 | 59 | 293 | 4.0 | 4.0 | 0.00 | 0.09 | 0.09 | 48 | 1012.4 |
| 20260506193008 | 59 | 290 | 2.0 | 4.0 | 0.00 | 0.09 | 0.09 | 49 | 1012.4 |
| 20260506192505 | 59 | 292 | 1.0 | 7.0 | 0.00 | 0.09 | 0.09 | 49 | 1012.5 |
| 20260506192001 | 59 | 242 | 2.0 | 3.0 | 0.00 | 0.09 | 0.09 | 47 | 1012.2 |
| 20260506191458 | 59 | 314 | 2.0 | 4.0 | 0.00 | 0.09 | 0.09 | 47 | 1012.1 |
| 20260506190954 | 60 | 202 | 4.0 | 7.0 | 0.00 | 0.09 | 0.09 | 46 | 1012.2 |
| 20260506190452 | 60 | 248 | 1.0 | 8.0 | 0.00 | 0.09 | 0.09 | 45 | 1012.1 |
| 20260506185948 | 60 | 337 | 3.0 | 6.0 | 0.00 | 0.09 | 0.09 | 45 | 1011.9 |
| 20260506185446 | 60 | 258 | 6.0 | 7.0 | 0.00 | 0.09 | 0.09 | 44 | 1012.1 |
| 20260506184942 | 60 | 59 | 1.0 | 8.0 | 0.00 | 0.09 | 0.09 | 44 | 1012.1 |
| 20260506184439 | 61 | 231 | 1.0 | 8.0 | 0.00 | 0.09 | 0.09 | 43 | 1012.2 |
| 20260506183936 | 60 | 316 | 2.0 | 7.0 | 0.00 | 0.09 | 0.09 | 45 | 1012.1 |
| 20260506183431 | 60 | 241 | 3.0 | 7.0 | 0.00 | 0.09 | 0.09 | 46 | 1012.1 |
| 20260506182929 | 60 | 13 | 1.0 | 3.0 | 0.00 | 0.09 | 0.09 | 47 | 1012.2 |
| 20260506182426 | 60 | 238 | 3.0 | 8.0 | 0.00 | 0.09 | 0.09 | 46 | 1012.2 |
| 20260506181923 | 60 | 326 | 3.0 | 4.0 | 0.00 | 0.09 | 0.09 | 43 | 1012.2 |
| 20260506181421 | 60 | 253 | 3.0 | 8.0 | 0.00 | 0.09 | 0.09 | 46 | 1012.2 |
| 20260506180918 | 61 | 221 | 2.0 | 4.0 | 0.00 | 0.09 | 0.09 | 46 | 1012.3 |
| 20260506180415 | 61 | 134 | 1.0 | 4.0 | 0.00 | 0.09 | 0.09 | 45 | 1012.2 |
| 20260506175912 | 60 | 277 | 0.0 | 2.0 | 0.00 | 0.09 | 0.09 | 49 | 1012.3 |
| 20260506175408 | 60 | 174 | 3.0 | 4.0 | 0.00 | 0.09 | 0.09 | 47 | 1012.2 |
| 20260506174905 | 60 | 294 | 2.0 | 7.0 | 0.00 | 0.09 | 0.09 | 45 | 1012.3 |
| 20260506174402 | 60 | 312 | 1.0 | 2.0 | 0.00 | 0.09 | 0.09 | 48 | 1012.5 |
| 20260506173859 | 60 | 277 | 2.0 | 3.0 | 0.00 | 0.09 | 0.09 | 47 | 1012.4 |
| 20260506173356 | 60 | 267 | 6.0 | 8.0 | 0.00 | 0.09 | 0.09 | 48 | 1012.4 |
| 20260506172853 | 60 | 107 | 1.0 | 4.0 | 0.00 | 0.09 | 0.09 | 48 | 1012.4 |
| 20260506172349 | 60 | 287 | 3.0 | 4.0 | 0.00 | 0.09 | 0.09 | 50 | 1012.3 |
| 20260506171847 | 60 | 93 | 1.0 | 4.0 | 0.00 | 0.09 | 0.09 | 46 | 1012.5 |
| 20260506171345 | 59 | 268 | 2.0 | 3.0 | 0.00 | 0.09 | 0.09 | 48 | 1012.1 |
| 20260506170842 | 59 | 28 | 2.0 | 6.0 | 0.00 | 0.09 | 0.09 | 50 | 1012.2 |
| 20260506170337 | 59 | 292 | 1.0 | 8.0 | 0.00 | 0.09 | 0.09 | 52 | 1012.2 |
| 20260506165832 | 59 | 241 | 3.0 | 7.0 | 0.00 | 0.09 | 0.09 | 50 | 1012.3 |
| 20260506165329 | 59 | 110 | 1.0 | 2.0 | 0.00 | 0.09 | 0.09 | 51 | 1012.5 |
| 20260506164825 | 58 | 311 | 3.0 | 4.0 | 0.00 | 0.09 | 0.09 | 51 | 1012.4 |
| 20260506164321 | 59 | 252 | 5.0 | 7.0 | 0.00 | 0.09 | 0.09 | 49 | 1012.3 |
| 20260506163819 | 59 | 111 | 1.0 | 3.0 | 0.00 | 0.09 | 0.09 | 51 | 1012.4 |
| 20260506163313 | 58 | 255 | 1.0 | 6.0 | 0.00 | 0.09 | 0.09 | 51 | 1012.7 |
| 20260506162809 | 58 | 211 | 3.0 | 4.0 | 0.00 | 0.09 | 0.09 | 53 | 1012.7 |
| 20260506162307 | 58 | 256 | 5.0 | 8.0 | 0.00 | 0.09 | 0.09 | 51 | 1012.5 |
| 20260506161804 | 58 | 354 | 2.0 | 9.0 | 0.00 | 0.09 | 0.09 | 53 | 1012.4 |
| 20260506161302 | 58 | 209 | 0.0 | 4.0 | 0.00 | 0.09 | 0.09 | 54 | 1012.5 |
| 20260506160759 | 58 | 330 | 1.0 | 2.0 | 0.00 | 0.09 | 0.09 | 58 | 1012.4 |
| 20260506160256 | 57 | 317 | 2.0 | 3.0 | 0.00 | 0.09 | 0.09 | 58 | 1012.0 |
| 20260506155755 | 57 | 308 | 2.0 | 3.0 | 0.00 | 0.09 | 0.09 | 55 | 1012.3 |
| 20260506155251 | 55 | 250 | 1.0 | 3.0 | 0.00 | 0.09 | 0.09 | 59 | 1012.0 |
| 20260506153404 | 55 | 251 | 3.0 | 6.0 | 0.00 | 0.09 | 0.09 | 61 | 1011.8 |
| 20260506152901 | 54 | 330 | 1.0 | 2.0 | 0.00 | 0.09 | 0.09 | 65 | 1012.0 |
| 20260506152358 | 54 | 8 | 2.0 | 6.0 | 0.00 | 0.09 | 0.09 | 62 | 1011.9 |
| 20260506151856 | 53 | 258 | 3.0 | 4.0 | 0.00 | 0.09 | 0.09 | 61 | 1011.9 |
| 20260506151353 | 53 | 6 | 3.0 | 3.0 | 0.00 | 0.09 | 0.09 | 63 | 1011.9 |
| 20260506150850 | 53 | 333 | 3.0 | 6.0 | 0.00 | 0.09 | 0.09 | 63 | 1011.6 |
| 20260506150346 | 52 | 276 | 1.0 | 2.0 | 0.00 | 0.09 | 0.09 | 66 | 1011.6 |
| 20260506145843 | 52 | 6 | 1.0 | 4.0 | 0.00 | 0.09 | 0.09 | 65 | 1011.6 |
| 20260506145340 | 52 | 200 | 1.0 | 3.0 | 0.00 | 0.09 | 0.09 | 65 | 1011.6 |
| 20260506144838 | 51 | 253 | 3.0 | 4.0 | 0.00 | 0.09 | 0.09 | 67 | 1011.7 |
| 20260506144334 | 51 | 286 | 2.0 | 6.0 | 0.00 | 0.09 | 0.09 | 68 | 1011.7 |
| 20260506143832 | 51 | 323 | 1.0 | 2.0 | 0.00 | 0.09 | 0.09 | 70 | 1011.9 |
| 20260506143329 | 51 | 3 | 2.0 | 6.0 | 0.00 | 0.09 | 0.09 | 72 | 1011.8 |
| 20260506142827 | 51 | 275 | 1.0 | 6.0 | 0.00 | 0.09 | 0.09 | 70 | 1011.3 |
| 20260506142324 | 50 | 288 | 1.0 | 1.0 | 0.00 | 0.09 | 0.09 | 75 | 1011.4 |
| 20260506141823 | 50 | 24 | 2.0 | 4.0 | 0.00 | 0.09 | 0.09 | 73 | 1011.3 |
| 20260506141321 | 50 | 306 | 1.0 | 7.0 | 0.00 | 0.09 | 0.09 | 74 | 1011.2 |
| 20260506140818 | 50 | 283 | 2.0 | 4.0 | 0.00 | 0.09 | 0.09 | 78 | 1011.2 |
| 20260506140315 | 50 | 14 | 1.0 | 3.0 | 0.00 | 0.09 | 0.09 | 78 | 1011.1 |
| 20260506135812 | 50 | 274 | 0.0 | 2.0 | 0.00 | 0.09 | 0.09 | 80 | 1011.0 |
| 20260506135308 | 49 | 326 | 0.0 | 4.0 | 0.00 | 0.09 | 0.09 | 80 | 1011.0 |
| 20260506134805 | 49 | 269 | 1.0 | 3.0 | 0.00 | 0.09 | 0.09 | 80 | 1011.2 |
| 20260506134301 | 49 | 247 | 4.0 | 9.0 | 0.00 | 0.09 | 0.09 | 78 | 1011.1 |
| 20260506133759 | 49 | 338 | 3.0 | 6.0 | 0.00 | 0.09 | 0.09 | 80 | 1010.8 |
| 20260506133255 | 49 | 238 | 1.0 | 4.0 | 0.00 | 0.09 | 0.09 | 82 | 1010.9 |
| 20260506132752 | 49 | 90 | 0.0 | 2.0 | 0.00 | 0.09 | 0.09 | 86 | 1010.5 |
| 20260506132249 | 48 | 288 | 1.0 | 3.0 | 0.00 | 0.09 | 0.09 | 85 | 1010.5 |
| 20260506131748 | 48 | 270 | 1.0 | 2.0 | 0.00 | 0.09 | 0.09 | 87 | 1010.7 |
| 20260506131243 | 48 | 245 | 2.0 | 6.0 | 0.00 | 0.09 | 0.09 | 87 | 1010.7 |
| 20260506130740 | 47 | 302 | 0.0 | 1.0 | 0.00 | 0.09 | 0.09 | 88 | 1010.9 |
| 20260506130237 | 47 | 306 | 2.0 | 3.0 | 0.00 | 0.09 | 0.09 | 87 | 1010.8 |
| 20260506125735 | 47 | 184 | 0.0 | 2.0 | 0.00 | 0.09 | 0.09 | 87 | 1010.9 |
| 20260506125233 | 47 | 10 | 0.0 | 6.0 | 0.00 | 0.09 | 0.09 | 87 | 1010.9 |
| 20260506124731 | 47 | 263 | 1.0 | 3.0 | 0.00 | 0.09 | 0.09 | 91 | 1010.8 |
| 20260506124228 | 47 | 56 | 0.0 | 2.0 | 0.00 | 0.09 | 0.09 | 92 | 1010.5 |
| 20260506123725 | 47 | 328 | 2.0 | 4.0 | 0.00 | 0.09 | 0.09 | 94 | 1010.4 |
| 20260506123224 | 47 | 356 | 1.0 | 3.0 | 0.00 | 0.09 | 0.09 | 95 | 1010.0 |
| 20260506122720 | 47 | 15 | 3.0 | 4.0 | 0.00 | 0.09 | 0.09 | 96 | 1009.5 |
| 20260506122218 | 47 | 251 | 3.0 | 6.0 | 0.00 | 0.09 | 0.09 | 97 | 1009.6 |
| 20260506121716 | 47 | 332 | 0.0 | 2.0 | 0.00 | 0.09 | 0.09 | 97 | 1009.6 |
| 20260506121212 | 47 | 147 | 0.0 | 2.0 | 0.00 | 0.09 | 0.09 | 97 | 1009.5 |
| 20260506120710 | 47 | 124 | 0.0 | 0.0 | 0.00 | 0.09 | 0.09 | 97 | 1009.7 |
| 20260506120207 | 47 | 280 | 0.0 | 2.0 | 0.00 | 0.09 | 0.09 | 97 | 1009.6 |
| 20260506115705 | 47 | 278 | 0.0 | 1.0 | 0.00 | 0.09 | 0.09 | 97 | 1009.8 |
| 20260506115203 | 46 | 277 | 1.0 | 2.0 | 0.00 | 0.09 | 0.09 | 97 | 1009.6 |
| 20260506114700 | 46 | 259 | 1.0 | 2.0 | 0.00 | 0.09 | 0.09 | 97 | 1009.7 |
| 20260506114158 | 46 | 221 | 1.0 | 1.0 | 0.00 | 0.09 | 0.09 | 97 | 1009.8 |
| 20260506113656 | 46 | 208 | 0.0 | 0.0 | 0.00 | 0.09 | 0.09 | 97 | 1009.9 |
| 20260506113153 | 46 | 184 | 0.0 | 1.0 | 0.00 | 0.09 | 0.09 | 97 | 1009.7 |
| 20260506112649 | 46 | 281 | 1.0 | 2.0 | 0.00 | 0.09 | 0.09 | 97 | 1009.4 |
| 20260506112147 | 46 | 275 | 0.0 | 2.0 | 0.00 | 0.09 | 0.09 | 97 | 1008.9 |
| 20260506111645 | 46 | 249 | 0.0 | 2.0 | 0.00 | 0.09 | 0.09 | 97 | 1008.5 |
| 20260506111142 | 46 | 358 | 0.0 | 6.0 | 0.00 | 0.09 | 0.09 | 97 | 1008.3 |
| 20260506110639 | 46 | 303 | 2.0 | 2.0 | 0.00 | 0.09 | 0.09 | 97 | 1008.3 |
| 20260506110137 | 46 | 295 | 2.0 | 6.0 | 0.00 | 0.09 | 0.09 | 97 | 1008.4 |
| 20260506105633 | 46 | 285 | 2.0 | 4.0 | 0.00 | 0.09 | 0.09 | 98 | 1008.8 |
| 20260506105130 | 46 | 287 | 0.0 | 2.0 | 0.00 | 0.09 | 0.09 | 98 | 1008.6 |
| 20260506104628 | 46 | 282 | 1.0 | 2.0 | 0.00 | 0.09 | 0.09 | 97 | 1008.6 |
| 20260506104125 | 47 | 322 | 0.0 | 2.0 | 0.00 | 0.09 | 0.09 | 98 | 1008.8 |
| 20260506103623 | 47 | 54 | 0.0 | 1.0 | 0.00 | 0.09 | 0.09 | 98 | 1008.7 |
| 20260506103119 | 47 | 68 | 1.0 | 1.0 | 0.00 | 0.09 | 0.09 | 98 | 1008.8 |
| 20260506102618 | 47 | 291 | 2.0 | 4.0 | 0.00 | 0.09 | 0.09 | 98 | 1008.7 |
| 20260506102115 | 47 | 296 | 0.0 | 2.0 | 0.00 | 0.09 | 0.09 | 98 | 1008.5 |
| 20260506101611 | 46 | 314 | 3.0 | 7.0 | 0.00 | 0.09 | 0.09 | 98 | 1008.3 |
| 20260506101108 | 46 | 38 | 0.0 | 4.0 | 0.00 | 0.09 | 0.09 | 98 | 1007.9 |
| 20260506100607 | 46 | 70 | 0.0 | 2.0 | 0.00 | 0.09 | 0.09 | 97 | 1007.6 |
| 20260506100104 | 46 | 331 | 0.0 | 3.0 | 0.00 | 0.09 | 0.09 | 97 | 1007.5 |
| 20260506095603 | 46 | 4 | 0.0 | 2.0 | 0.00 | 0.09 | 0.09 | 97 | 1007.4 |
| 20260506095059 | 46 | 306 | 1.0 | 2.0 | 0.00 | 0.09 | 0.09 | 97 | 1007.5 |
| 20260506094557 | 46 | 265 | 2.0 | 3.0 | 0.00 | 0.09 | 0.09 | 97 | 1007.7 |
| 20260506094054 | 46 | 262 | 0.0 | 1.0 | 0.00 | 0.09 | 0.09 | 97 | 1007.1 |
| 20260506093552 | 46 | 316 | 1.0 | 1.0 | 0.00 | 0.09 | 0.09 | 97 | 1007.2 |
| 20260506093049 | 46 | 359 | 0.0 | 1.0 | 0.00 | 0.09 | 0.09 | 97 | 1007.3 |
| 20260506092548 | 46 | 3 | 2.0 | 4.0 | 0.00 | 0.09 | 0.09 | 97 | 1007.7 |
| 20260506092044 | 47 | 202 | 0.0 | 2.0 | 0.00 | 0.09 | 0.09 | 97 | 1008.0 |
| 20260506091542 | 47 | 274 | 2.0 | 2.0 | 0.00 | 0.09 | 0.09 | 97 | 1008.1 |
| 20260506091039 | 47 | 298 | 2.0 | 4.0 | 0.00 | 0.09 | 0.09 | 97 | 1007.7 |
| 20260506090537 | 47 | 325 | 2.0 | 2.0 | 0.00 | 0.09 | 0.09 | 97 | 1007.3 |
| 20260506090033 | 47 | 306 | 1.0 | 3.0 | 0.05 | 0.09 | 0.09 | 97 | 1007.3 |
| 20260506085530 | 47 | 305 | 0.0 | 2.0 | 0.05 | 0.09 | 0.09 | 97 | 1007.5 |
| 20260506085026 | 47 | 251 | 2.0 | 3.0 | 0.00 | 0.08 | 0.08 | 97 | 1007.5 |
| 20260506084524 | 47 | 102 | 3.0 | 4.0 | 0.07 | 0.08 | 0.08 | 97 | 1007.8 |
| 20260506084019 | 47 | 45 | 2.0 | 3.0 | 0.07 | 0.08 | 0.08 | 97 | 1008.0 |
| 20260506083517 | 47 | 261 | 4.0 | 4.0 | 0.05 | 0.07 | 0.07 | 97 | 1007.9 |
| 20260506083014 | 47 | 3 | 0.0 | 3.0 | 0.12 | 0.07 | 0.07 | 98 | 1007.8 |
| 20260506082511 | 47 | 253 | 2.0 | 7.0 | 0.12 | 0.06 | 0.06 | 97 | 1007.8 |
| 20260506082007 | 47 | 104 | 0.0 | 2.0 | 0.12 | 0.05 | 0.05 | 97 | 1007.5 |
| 20260506081505 | 47 | 296 | 1.0 | 7.0 | 0.07 | 0.04 | 0.04 | 98 | 1007.6 |
| 20260506081002 | 47 | 271 | 1.0 | 3.0 | 0.00 | 0.03 | 0.03 | 97 | 1007.8 |
| 20260506080459 | 47 | 263 | 0.0 | 3.0 | 0.00 | 0.03 | 0.03 | 97 | 1007.4 |
| 20260506073443 | 47 | 272 | 0.0 | 4.0 | 0.05 | 0.03 | 0.03 | 97 | 1007.0 |
| 20260506072940 | 47 | 45 | 3.0 | 4.0 | 0.00 | 0.02 | 0.02 | 97 | 1007.1 |
| 20260506072437 | 47 | 318 | 2.0 | 2.0 | 0.00 | 0.02 | 0.02 | 97 | 1007.1 |
| 20260506071935 | 47 | 313 | 4.0 | 6.0 | 0.07 | 0.02 | 0.02 | 97 | 1007.1 |
| 20260506071433 | 47 | 274 | 4.0 | 6.0 | 0.07 | 0.02 | 0.02 | 97 | 1007.0 |
| 20260506070930 | 47 | 276 | 1.0 | 2.0 | 0.07 | 0.01 | 0.01 | 97 | 1006.9 |
| 20260506070426 | 47 | 75 | 2.0 | 4.0 | 0.05 | 0.00 | 0.00 | 97 | 1007.1 |
| 20260506062404 | 48 | 289 | 2.0 | 6.0 | 0.12 | 0.78 | 0.78 | 98 | 1007.1 |
| 20260506061900 | 49 | 277 | 1.0 | 7.0 | 0.12 | 0.77 | 0.77 | 98 | 1007.4 |
| 20260506061356 | 49 | 332 | 4.0 | 6.0 | 0.14 | 0.76 | 0.76 | 98 | 1007.2 |
| 20260506060855 | 49 | 280 | 1.0 | 2.0 | 0.12 | 0.75 | 0.75 | 98 | 1007.3 |
| 20260506060352 | 49 | 308 | 0.0 | 3.0 | 0.12 | 0.74 | 0.74 | 98 | 1007.4 |
| 20260506051324 | 50 | 0 | 1.0 | 2.0 | 0.05 | 0.68 | 0.68 | 98 | 1007.4 |
| 20260506050822 | 50 | 289 | 3.0 | 4.0 | 0.12 | 0.68 | 0.68 | 97 | 1007.3 |
| 20260506050319 | 50 | 262 | 2.0 | 4.0 | 0.07 | 0.67 | 0.67 | 98 | 1007.3 |
| 20260506044810 | 50 | 280 | 2.0 | 3.0 | 0.00 | 0.66 | 0.66 | 98 | 1007.3 |
| 20260506044307 | 50 | 303 | 1.0 | 2.0 | 0.00 | 0.66 | 0.66 | 98 | 1007.3 |
| 20260506043804 | 50 | 257 | 2.0 | 3.0 | 0.00 | 0.66 | 0.66 | 98 | 1007.5 |
| 20260506043301 | 50 | 242 | 2.0 | 3.0 | 0.00 | 0.66 | 0.66 | 98 | 1007.5 |
| 20260506042801 | 50 | 305 | 3.0 | 4.0 | 0.00 | 0.66 | 0.66 | 98 | 1007.4 |
| 20260506042259 | 50 | 97 | 0.0 | 1.0 | 0.00 | 0.66 | 0.66 | 98 | 1007.6 |
| 20260506041757 | 51 | 117 | 0.0 | 0.0 | 0.00 | 0.66 | 0.66 | 98 | 1007.5 |
| 20260506041253 | 51 | 241 | 0.0 | 1.0 | 0.00 | 0.66 | 0.66 | 98 | 1007.5 |
| 20260506040751 | 51 | 256 | 0.0 | 0.0 | 0.00 | 0.66 | 0.66 | 98 | 1007.6 |
| 20260506040248 | 51 | 289 | 1.0 | 1.0 | 0.00 | 0.66 | 0.66 | 98 | 1007.6 |
| 20260506035745 | 51 | 30 | 1.0 | 2.0 | 0.00 | 0.66 | 0.66 | 98 | 1007.7 |
| 20260506035241 | 51 | 211 | 0.0 | 0.0 | 0.00 | 0.66 | 0.66 | 98 | 1007.8 |
| 20260506034738 | 51 | 48 | 0.0 | 3.0 | 0.05 | 0.66 | 0.66 | 98 | 1007.8 |
| 20260506034236 | 51 | 275 | 0.0 | 2.0 | 0.12 | 0.66 | 0.66 | 98 | 1008.0 |
| 20260506033732 | 51 | 359 | 1.0 | 1.0 | 0.07 | 0.65 | 0.65 | 98 | 1007.9 |
| 20260506033230 | 51 | 302 | 1.0 | 2.0 | 0.05 | 0.64 | 0.64 | 98 | 1008.0 |
| 20260506032726 | 51 | 270 | 1.0 | 6.0 | 0.07 | 0.63 | 0.63 | 98 | 1008.0 |
| 20260506032223 | 52 | 280 | 1.0 | 4.0 | 0.12 | 0.62 | 0.62 | 98 | 1008.0 |
| 20260506031720 | 52 | 17 | 1.0 | 3.0 | 0.19 | 0.62 | 0.62 | 98 | 1008.1 |
| 20260506031217 | 52 | 324 | 2.0 | 3.0 | 0.24 | 0.60 | 0.60 | 98 | 1008.3 |
| 20260506030716 | 53 | 266 | 2.0 | 6.0 | 0.31 | 0.58 | 0.58 | 98 | 1008.5 |
| 20260506030213 | 53 | 348 | 1.0 | 1.0 | 0.24 | 0.56 | 0.56 | 98 | 1008.4 |
| 20260506025709 | 54 | 354 | 1.0 | 6.0 | 0.17 | 0.53 | 0.53 | 98 | 1008.2 |
| 20260506025206 | 55 | 266 | 3.0 | 4.0 | 0.19 | 0.52 | 0.52 | 98 | 1008.5 |
| 20260506024703 | 56 | 215 | 0.0 | 2.0 | 0.07 | 0.50 | 0.50 | 97 | 1008.0 |
| 20260506024159 | 59 | 291 | 5.0 | 9.0 | 0.07 | 0.49 | 0.49 | 98 | 1008.3 |
| 20260506023655 | 59 | 182 | 0.0 | 0.0 | 0.12 | 0.49 | 0.49 | 99 | 1007.7 |
| 20260506023153 | 59 | 183 | 0.0 | 0.0 | 0.12 | 0.48 | 0.48 | 99 | 1007.7 |
| 20260506022650 | 59 | 181 | 0.0 | 0.0 | 0.12 | 0.47 | 0.47 | 99 | 1007.9 |
| 20260506022147 | 59 | 181 | 0.0 | 0.0 | 0.12 | 0.46 | 0.46 | 99 | 1007.7 |
| 20260506021645 | 59 | 181 | 0.0 | 0.0 | 0.12 | 0.45 | 0.45 | 99 | 1007.7 |
| 20260506021142 | 59 | 181 | 0.0 | 0.0 | 0.12 | 0.44 | 0.44 | 99 | 1007.7 |
| 20260506020639 | 59 | 188 | 0.0 | 0.0 | 0.12 | 0.43 | 0.43 | 98 | 1007.9 |
| 20260506020137 | 59 | 188 | 0.0 | 0.0 | 0.12 | 0.42 | 0.42 | 98 | 1007.9 |
| 20260506015634 | 59 | 188 | 0.0 | 0.0 | 0.12 | 0.41 | 0.41 | 98 | 1007.9 |
| 20260506015131 | 59 | 188 | 0.0 | 0.0 | 0.17 | 0.40 | 0.40 | 98 | 1007.9 |
| 20260506014629 | 59 | 182 | 0.0 | 0.0 | 0.12 | 0.38 | 0.38 | 98 | 1007.9 |
| 20260506014124 | 59 | 182 | 0.0 | 0.0 | 0.14 | 0.37 | 0.37 | 98 | 1007.9 |
| 20260506013623 | 59 | 180 | 0.0 | 0.0 | 0.05 | 0.35 | 0.35 | 98 | 1007.7 |
| 20260506013119 | 59 | 193 | 0.0 | 0.0 | 0.07 | 0.34 | 0.34 | 98 | 1007.8 |
| 20260506012615 | 59 | 193 | 0.0 | 0.0 | 0.05 | 0.33 | 0.33 | 98 | 1007.4 |
| 20260506012112 | 60 | 193 | 0.0 | 0.0 | 0.05 | 0.33 | 0.33 | 98 | 1007.5 |
| 20260506011610 | 60 | 193 | 0.0 | 0.0 | 0.00 | 0.32 | 0.32 | 98 | 1007.4 |
| 20260506011106 | 60 | 192 | 0.0 | 0.0 | 0.00 | 0.32 | 0.32 | 98 | 1007.4 |
| 20260506010605 | 60 | 190 | 0.0 | 2.0 | 0.00 | 0.32 | 0.32 | 98 | 1007.2 |
| 20260506005559 | 60 | 181 | 0.0 | 0.0 | 0.07 | 0.32 | 0.32 | 98 | 1007.2 |
| 20260506005055 | 60 | 178 | 0.0 | 0.0 | 0.00 | 0.31 | 0.31 | 98 | 1007.4 |
| 20260506004552 | 60 | 165 | 0.0 | 0.0 | 0.05 | 0.31 | 0.31 | 98 | 1007.3 |
| 20260506004049 | 60 | 161 | 0.0 | 0.0 | 0.05 | 0.31 | 0.31 | 98 | 1007.3 |
| 20260506003545 | 60 | 172 | 0.0 | 0.0 | 0.07 | 0.30 | 0.30 | 98 | 1007.4 |
| 20260506003041 | 60 | 181 | 0.0 | 0.0 | 0.00 | 0.29 | 0.29 | 98 | 1007.5 |
| 20260506002537 | 60 | 185 | 0.0 | 0.0 | 0.00 | 0.29 | 0.29 | 98 | 1007.4 |
| 20260506002033 | 60 | 182 | 0.0 | 0.0 | 0.00 | 0.29 | 0.29 | 98 | 1007.4 |
| 20260506001530 | 60 | 183 | 0.0 | 0.0 | 0.00 | 0.29 | 0.29 | 98 | 1007.4 |
| 20260506001027 | 60 | 185 | 0.0 | 0.0 | 0.05 | 0.29 | 0.29 | 98 | 1007.4 |
| 20260506000525 | 60 | 195 | 0.0 | 1.0 | 0.07 | 0.28 | 0.28 | 98 | 1007.3 |
| 20260506000022 | 60 | 183 | 0.0 | 0.0 | 0.07 | 0.28 | 0.28 | 98 | 1007.5 |
| 20260505235520 | 60 | 179 | 0.0 | 0.0 | 0.05 | 0.27 | 0.27 | 98 | 1007.4 |
| 20260505235016 | 60 | 179 | 0.0 | 0.0 | 0.12 | 0.27 | 0.27 | 97 | 1007.4 |
| 20260505234513 | 60 | 179 | 0.0 | 0.0 | 0.07 | 0.26 | 0.26 | 97 | 1007.3 |
| 20260505234010 | 60 | 178 | 0.0 | 0.0 | 0.00 | 0.25 | 0.25 | 97 | 1007.5 |
| 20260505233508 | 60 | 178 | 0.0 | 0.0 | 0.00 | 0.25 | 0.25 | 97 | 1007.6 |
| 20260505233005 | 60 | 186 | 0.0 | 0.0 | 0.00 | 0.25 | 0.25 | 97 | 1007.6 |
| 20260505232503 | 60 | 186 | 0.0 | 0.0 | 0.00 | 0.25 | 0.25 | 97 | 1007.7 |
| 20260505232000 | 60 | 186 | 0.0 | 0.0 | 0.00 | 0.25 | 0.25 | 97 | 1007.8 |
| 20260505231457 | 60 | 186 | 0.0 | 0.0 | 0.07 | 0.25 | 0.25 | 97 | 1007.6 |
| 20260505230955 | 60 | 166 | 0.0 | 0.0 | 0.00 | 0.24 | 0.24 | 97 | 1007.8 |
| 20260505230452 | 60 | 173 | 0.0 | 0.0 | 0.00 | 0.24 | 0.24 | 97 | 1007.8 |
| 20260505225949 | 60 | 221 | 0.0 | 0.0 | 0.00 | 0.24 | 0.24 | 97 | 1007.8 |
| 20260505225446 | 60 | 204 | 0.0 | 1.0 | 0.00 | 0.24 | 0.24 | 96 | 1007.9 |
| 20260505224942 | 60 | 191 | 0.0 | 0.0 | 0.00 | 0.24 | 0.24 | 96 | 1007.7 |
| 20260505224439 | 60 | 191 | 0.0 | 0.0 | 0.05 | 0.24 | 0.24 | 96 | 1007.9 |
| 20260505223936 | 60 | 185 | 0.0 | 0.0 | 0.05 | 0.24 | 0.24 | 96 | 1007.9 |
| 20260505223433 | 60 | 183 | 0.0 | 1.0 | 0.00 | 0.23 | 0.23 | 96 | 1008.0 |
| 20260505222929 | 60 | 167 | 0.0 | 0.0 | 0.07 | 0.23 | 0.23 | 96 | 1008.0 |
| 20260505222426 | 60 | 213 | 0.0 | 0.0 | 0.05 | 0.22 | 0.22 | 96 | 1008.0 |
| 20260505221921 | 60 | 207 | 0.0 | 0.0 | 0.00 | 0.21 | 0.21 | 95 | 1008.1 |
| 20260505221419 | 60 | 256 | 0.0 | 0.0 | 0.07 | 0.21 | 0.21 | 95 | 1008.0 |
| 20260505220916 | 60 | 107 | 1.0 | 2.0 | 0.05 | 0.20 | 0.20 | 95 | 1008.1 |
| 20260505220413 | 60 | 211 | 0.0 | 0.0 | 0.12 | 0.20 | 0.20 | 95 | 1008.1 |
| 20260505215911 | 60 | 317 | 1.0 | 1.0 | 0.12 | 0.19 | 0.19 | 95 | 1008.2 |
| 20260505215409 | 60 | 261 | 0.0 | 1.0 | 0.12 | 0.18 | 0.18 | 94 | 1008.1 |